カタログに戻る

STARLINK-5330

運用中通信VLEO
NORAD 55282·PAYLOAD·🇺🇸 United States

打ち上げ Jan 19, 2023 から Vandenberg Space Force Base

Loading…

次のパス (今後24時間)

TLE

最新Source: CelesTrak SupGP

元期: Sep 15, 2026, 03:01 UTC

1 55282C 23010P   26258.12618056 -.00016372  00000+0 -13717-2 0  2589
2 55282  69.9998 286.6461 0003765 267.0601 173.0598 14.98345894    19

AllMySatでSTARLINK-5330をリアルタイム追跡

Download on the App Store